Saint Johnsbury, VT

9:19 PM EDT on September 27, 2016 (GMT -0400)
St. Johnsbury

Weather History for K1V4 - October, 2011

Change the Weather History Date:

Wednesday, October 12, 2011

  Actual Average Record
Temperature  
Mean Temperature 51 °F 48 °F  
Max Temperature 61 °F 59 °F 89 °F (1930)
Min Temperature 41 °F 38 °F 17 °F (1964)
Degree Days  
Heating Degree Days 14 17  
Month to date heating degree days 149 171  
Since 1 July heating degree days 309 405  
Cooling Degree Days 0 0  
Month to date cooling degree days 0 0  
Year to date cooling degree days 375 432  
Growing Degree Days 2 (Base 50)    
Moisture  
Dew Point 43 °F    
Average Humidity 76    
Maximum Humidity 96    
Minimum Humidity 55    
Precipitation  
Precipitation 0.00 in 0.13 in 1.02 in (1905)
Month to date precipitation 1.37 1.53  
Year to date precipitation 43.60 30.68  
Sea Level Pressure  
Sea Level Pressure 30.17 in    
Wind  
Wind Speed - (North)    
Max Wind Speed -    
Max Gust Speed -    
T = Trace of Precipitation, MM = Missing Value Source: NWS Daily Summary

Daily Weather History Graph

Daily Weather History Graph

Search for Another Location

Airport or City:

Trip Planner

Search our weather history database for the weather conditions in past years. The results will help you decide how hot, cold, wet, or windy it might be!

Date:

Astronomy

Oct. 12, 2011 Rise Set
Actual Time 6:58 AM EDT 6:09 PM EDT
Civil Twilight 6:29 AM EDT 6:38 PM EDT
Nautical Twilight 5:56 AM EDT 7:12 PM EDT
Astronomical Twilight 5:22 AM EDT 7:45 PM EDT
Moon 6:05 PM EDT (10/12) 7:34 AM EDT (10/12)
Length of Visible Light 12h 08m
Length of Day
11h 10m
Full, 100% of the Moon is Illuminated
Oct 12
Full
Oct 19
Last Quarter
Oct 26
New
Nov 2
First Quarter
Nov 10
Full

Hourly Weather History & Observations

Time (EDT) Temp. Dew Point Humidity Pressure Visibility Wind Dir Wind Speed Gust Speed Precip Events Conditions
12:54 AM 43.0 °F 41.0 °F 93% 30.22 in - North - - N/A   Unknown
1:54 AM 43.0 °F 41.0 °F 93% 30.22 in - North - - N/A   Unknown
2:54 AM 42.1 °F 39.9 °F 92% 30.22 in - North - - N/A   Unknown
3:54 AM 43.0 °F 39.9 °F 89% 30.21 in - North - - N/A   Unknown
4:54 AM 42.1 °F 39.9 °F 92% 30.22 in - North - - N/A   Unknown
5:54 AM 42.1 °F 39.9 °F 92% 30.22 in - North - - N/A   Unknown
6:54 AM 42.1 °F 39.9 °F 92% 30.23 in - North - - N/A   Unknown
7:54 AM 42.1 °F 39.9 °F 92% 30.25 in - North - - N/A   Unknown
8:54 AM 44.1 °F 41.0 °F 89% 30.25 in - North - - N/A   Unknown
9:54 AM 48.0 °F 43.0 °F 83% 30.24 in - North - - N/A   Unknown
10:54 AM 54.0 °F 45.0 °F 72% 30.22 in - North - - N/A   Unknown
11:54 AM 57.9 °F 46.0 °F 65% 30.19 in - North - - N/A   Unknown
12:54 PM 60.1 °F 45.0 °F 57% 30.17 in - North - - N/A   Unknown
1:54 PM 61.0 °F 45.0 °F 56% 30.14 in - North - - N/A   Unknown
2:54 PM 61.0 °F 45.0 °F 56% 30.13 in - North - - N/A   Unknown
3:54 PM 60.1 °F 44.1 °F 55% 30.12 in - North - - N/A   Unknown
4:54 PM 57.9 °F 44.1 °F 60% 30.12 in - North - - N/A   Unknown
5:54 PM 55.9 °F 43.0 °F 62% 30.12 in - North - - N/A   Unknown
6:54 PM 55.0 °F 43.0 °F 64% 30.13 in - North - - N/A   Unknown
7:54 PM 54.0 °F 43.0 °F 66% 30.14 in - North - - N/A   Unknown
8:54 PM 53.1 °F 43.0 °F 69% 30.12 in - North - - N/A   Unknown
9:54 PM 52.0 °F 44.1 °F 74% 30.12 in - North - - N/A   Unknown
10:54 PM 50.0 °F 44.1 °F 80% 30.09 in - North - - N/A   Unknown
11:54 PM 50.0 °F 45.0 °F 83% 30.08 in - North - - N/A   Unknown